Location: Gollag?dem
(16.8053°N, 80.8024°E)
Time: 12:30:21
(UTC+00:00)

Cosmos 2084 Rocket - Pass Details

Date: 13 August 2020
Orbit: 549 x 632 km, 62.8° (Epoch: 24 September)

Event Time Altitude Azimuth Distance (km) Brightness Sun altitude
Rises 14:15:52 0° 196° (SSW) 2,702 6.8 -17.4°
Reaches altitude 10° 14:18:06 10° 192° (SSW) 1,812 5.9 -17.9°
Maximum altitude 14:22:04 55° 114° (ESE) 664 3.3 -18.8°
Drops below altitude 10° 14:26:06 10° 36° (NE) 1,835 5.8 -19.7°
Sets 14:28:22 0° 32° (NNE) 2,742 6.8 -20.2°
